Zurück zum Katalog

STARLINK-30289

AktivKommunikationVLEO
NORAD 57653·PAYLOAD·🇺🇸 United States

Gestartet Aug 17, 2023 von Cape Canaveral Space Force Station

Loading…

Nächste Überflüge (nächste 24 Stunden)

TLE

AktuellSource: CelesTrak SupGP

Epoche: Sep 14, 2026, 21:38 UTC

1 57653C 23122X   26257.90187500  .00030168  00000+0  10929-2 0  2575
2 57653  43.0029  93.2814 0001395 265.7145 311.5213 15.27558203    16

Verfolge STARLINK-30289 in Echtzeit mit AllMySat

Download on the App Store